Leadville, CO

11:43 AM MDT on July 20, 2017 (GMT -0600)
Lake County

Weather History for KLXV - November, 2011

Change the Weather History Date:

Tuesday, November 15, 2011

  Actual Average Record
Temperature  
Mean Temperature 25 °F -  
Max Temperature 29 °F 37 °F 57 °F (1999)
Min Temperature 20 °F 12 °F -9 °F (1997)
Degree Days  
Heating Degree Days 40 40  
Month to date heating degree days 625 561  
Since 1 July heating degree days 2577 2750  
Cooling Degree Days 0 0  
Month to date cooling degree days 0 0  
Year to date cooling degree days 0 0  
Moisture  
Dew Point 16 °F    
Average Humidity 62    
Maximum Humidity 81    
Minimum Humidity 42    
Precipitation  
Precipitation 0.02 in 0.02 in 0.32 in (1987)
Month to date precipitation 0.56 0.41  
Year to date precipitation 14.45 11.35  
Sea Level Pressure  
Sea Level Pressure 29.88 in    
Wind  
Wind Speed 10 mph (NNW)    
Max Wind Speed 28 mph    
Max Gust Speed 37 mph    
Visibility 6 miles    
Events Snow    
T = Trace of Precipitation, MM = Missing Value Source: NWS Daily Summary

Daily Weather History Graph

Daily Weather History Graph

Search for Another Location

Airport or City:

Trip Planner

Search our weather history database for the weather conditions in past years. The results will help you decide how hot, cold, wet, or windy it might be!

Date:

Astronomy

Nov. 15, 2011 Rise Set
Actual Time 6:48 AM MST 4:50 PM MST
Civil Twilight 6:19 AM MST 5:19 PM MST
Nautical Twilight 5:47 AM MST 5:51 PM MST
Astronomical Twilight 5:15 AM MST 6:23 PM MST
Moon 9:02 PM MST (11/15) 10:49 AM MST (11/15)
Length of Visible Light 10h 59m
Length of Day
10h 02m
Waning Gibbous, 78% of the Moon is Illuminated
Nov 15
Waning Gibbous
Nov 18
Last Quarter
Nov 24
New
Dec 2
First Quarter
Dec 10
Full

Hourly Weather History & Observations

Time (MST) Temp. Windchill Dew Point Humidity Pressure Visibility Wind Dir Wind Speed Gust Speed Precip Events Conditions
12:53 AM 25.0 °F 14.8 °F 9.0 °F 51% 29.72 in 10.0 mi WNW 10.4 mph 21.9 mph N/A   Mostly Cloudy
1:53 AM 25.0 °F 9.5 °F 5.0 °F 43% 29.73 in 10.0 mi NW 24.2 mph 29.9 mph N/A   Clear
2:53 AM 24.1 °F 12.0 °F 6.1 °F 46% 29.73 in 10.0 mi NW 13.8 mph 24.2 mph N/A   Overcast
3:53 AM 24.1 °F 12.0 °F 7.0 °F 48% 29.72 in 10.0 mi NW 13.8 mph 24.2 mph N/A   Overcast
4:53 AM 25.0 °F 12.2 °F 8.1 °F 49% 29.74 in 10.0 mi NW 16.1 mph 27.6 mph N/A   Mostly Cloudy
6:53 AM 24.1 °F 11.0 °F 9.0 °F 53% 29.77 in 10.0 mi NW 16.1 mph 28.8 mph N/A   Clear
7:53 AM 24.1 °F 13.7 °F 9.0 °F 53% 29.80 in 10.0 mi NW 10.4 mph 24.2 mph N/A   Mostly Cloudy
8:53 AM 26.1 °F 12.7 °F 12.0 °F 55% 29.80 in 10.0 mi NW 18.4 mph 26.5 mph N/A   Mostly Cloudy
9:53 AM 27.0 °F 16.7 °F 15.1 °F 61% 29.81 in 10.0 mi NNW 11.5 mph 23.0 mph N/A   Partly Cloudy
10:53 AM 28.9 °F 15.8 °F 12.0 °F 49% 29.81 in 10.0 mi NW 20.7 mph 34.5 mph N/A   Partly Cloudy
11:47 AM 26.6 °F 16.2 °F 17.6 °F 69% 29.96 in 2.5 mi NW 11.5 mph 19.6 mph 0.00 in Snow Light Snow
11:53 AM 26.1 °F 18.4 °F 19.0 °F 75% 29.82 in 1.8 mi NNW 6.9 mph 17.3 mph 0.00 in Snow Light Snow
12:03 PM 26.6 °F 16.8 °F 17.6 °F 69% 29.95 in 2.5 mi NNW 10.4 mph 17.3 mph 0.00 in Snow Light Snow
12:10 PM 26.6 °F 14.7 °F 17.6 °F 69% 29.95 in 4.0 mi NNW 15.0 mph 23.0 mph 0.00 in Snow Light Snow
12:48 PM 28.4 °F 17.0 °F 17.6 °F 64% 29.94 in 10.0 mi NNW 15.0 mph 19.6 mph 0.00 in   Mostly Cloudy
12:53 PM 27.0 °F 14.7 °F 18.0 °F 69% 29.81 in 8.0 mi NNW 16.1 mph 23.0 mph 0.00 in Snow Light Snow
1:29 PM 26.6 °F 16.2 °F 19.4 °F 74% 29.94 in 1.8 mi NNW 11.5 mph - 0.00 in Snow Light Snow
1:42 PM 24.8 °F 14.0 °F 21.2 °F 86% 29.94 in 1.0 mi NNW 11.5 mph - 0.00 in Snow Light Snow
1:53 PM 26.1 °F 16.2 °F 21.0 °F 81% 29.81 in 1.2 mi North 10.4 mph 18.4 mph 0.00 in Snow Light Snow
1:56 PM 24.8 °F 16.9 °F 21.2 °F 86% 29.93 in 0.8 mi North 6.9 mph 18.4 mph 0.00 in Snow Light Snow
2:00 PM 26.6 °F 19.1 °F 21.2 °F 80% 29.94 in 1.0 mi Variable 6.9 mph - 0.00 in Snow Light Snow
2:06 PM 26.6 °F 17.5 °F 21.2 °F 80% 29.94 in 3.0 mi North 9.2 mph - 0.00 in Snow Light Snow
2:14 PM 24.8 °F 15.3 °F 19.4 °F 80% 29.93 in 2.0 mi North 9.2 mph 18.4 mph 0.00 in Snow Light Snow
2:20 PM 26.6 °F 19.1 °F 19.4 °F 74% 29.93 in 3.0 mi Variable 6.9 mph 18.4 mph 0.01 in Snow Light Snow
2:53 PM 26.1 °F 21.9 °F 18.0 °F 71% 29.82 in 10.0 mi ENE 3.5 mph - 0.01 in   Overcast
3:53 PM 26.1 °F 17.6 °F 15.1 °F 63% 29.83 in 10.0 mi North 8.1 mph - N/A   Overcast
4:28 PM 24.8 °F 16.1 °F 19.4 °F 80% 29.95 in 1.8 mi North 8.1 mph - 0.00 in Snow Light Snow
4:40 PM 23.0 °F 14.7 °F 19.4 °F 86% 29.95 in 0.8 mi North 6.9 mph 16.1 mph 0.00 in Snow Light Snow
4:51 PM 23.0 °F 17.0 °F 19.4 °F 86% 29.95 in 3.0 mi NNW 4.6 mph - 0.00 in Snow Light Snow
4:53 PM 24.1 °F 19.7 °F 19.0 °F 81% 29.83 in 5.0 mi North 3.5 mph - 0.00 in Snow Light Snow
5:01 PM 24.8 °F 20.5 °F 19.4 °F 80% 29.95 in 6.0 mi Variable 3.5 mph - 0.00 in Snow Light Snow
5:53 PM 23.0 °F 17.0 °F 17.1 °F 78% 29.86 in 10.0 mi NNW 4.6 mph - 0.00 in   Overcast
6:53 PM 23.0 °F 14.7 °F 16.0 °F 74% 29.88 in 10.0 mi NE 6.9 mph - N/A   Overcast
7:53 PM 21.9 °F 11.7 °F 16.0 °F 78% 29.89 in 10.0 mi NE 9.2 mph - N/A   Overcast
8:53 PM 21.9 °F 15.7 °F 16.0 °F 78% 29.88 in 10.0 mi ENE 4.6 mph - 0.00 in   Overcast
9:34 PM 21.2 °F 14.9 °F 17.6 °F 86% 29.99 in 2.0 mi NE 4.6 mph - 0.00 in Snow Light Snow
9:39 PM 21.2 °F - 17.6 °F 86% 29.99 in 1.8 mi Calm Calm - 0.00 in Snow Light Snow
9:46 PM 21.2 °F 16.4 °F 17.6 °F 86% 29.99 in 1.5 mi Variable 3.5 mph - 0.00 in Snow Light Snow
9:53 PM 21.9 °F 17.2 °F 18.0 °F 85% 29.88 in 1.5 mi East 3.5 mph - 0.00 in Snow Light Snow
10:04 PM 21.2 °F - 17.6 °F 86% 29.99 in 2.5 mi Calm Calm - 0.01 in Snow Light Snow
10:19 PM 21.2 °F 16.4 °F 17.6 °F 86% 29.99 in 4.0 mi Variable 3.5 mph - 0.01 in Snow Light Snow
10:30 PM 21.2 °F - 15.8 °F 80% 29.99 in 9.0 mi Calm Calm - 0.01 in   Overcast
10:53 PM 19.9 °F - 14.0 °F 78% 29.88 in 10.0 mi Calm Calm - 0.01 in   Mostly Cloudy
11:53 PM 21.9 °F 11.7 °F 12.9 °F 68% 29.90 in 10.0 mi North 9.2 mph - 0.00 in   Overcast